Los Angeles Downtown, CA

11:25 AM PDT on May 27, 2017 (GMT -0700)
Los Angeles Downtown

Weather History for KCQT - July, 2014

Change the Weather History Date:

Thursday, July 3, 2014

  Actual Average Record
Temperature  
Mean Temperature 72 °F 72 °F  
Max Temperature 81 °F 82 °F 100 °F (1985)
Min Temperature 63 °F 63 °F 52 °F (1902)
Degree Days  
Heating Degree Days 0 0  
Month to date heating degree days 0 0  
Since 1 June heating degree days 0 8  
Since 1 July heating degree days 0 0  
Cooling Degree Days 7 7  
Month to date cooling degree days 17 21  
Year to date cooling degree days 439 309  
Since 1 June cooling degree days 145 155  
Growing Degree Days 22 (Base 50)    
Moisture  
Dew Point 62 °F    
Average Humidity 79    
Maximum Humidity 100    
Minimum Humidity 58    
Precipitation  
Precipitation 0.00 in 0.00 in 0.00 in (2017)
Month to date precipitation 0.00 0.00  
Year to date precipitation 5.11 10.61  
Since 1 July precipitation 0.00  
Sea Level Pressure  
Sea Level Pressure 29.89 in    
Wind  
Wind Speed 2 mph (SW)    
Max Wind Speed 12 mph    
Max Gust Speed 15 mph    
Visibility 6 miles    
Events      
T = Trace of Precipitation, MM = Missing Value Source: NWS Daily Summary

Daily Weather History Graph

Daily Weather History Graph

Search for Another Location

Airport or City:

Trip Planner

Search our weather history database for the weather conditions in past years. The results will help you decide how hot, cold, wet, or windy it might be!

Date:

Astronomy

Jul. 03, 2014 Rise Set
Actual Time 5:46 AM PDT 8:08 PM PDT
Civil Twilight 5:17 AM PDT 8:37 PM PDT
Nautical Twilight 4:41 AM PDT 9:12 PM PDT
Astronomical Twilight 4:02 AM PDT 9:51 PM PDT
Moon 11:32 AM PDT (7/3) 11:51 PM PDT (7/3)
Length of Visible Light 15h 20m
Length of Day
14h 22m
Waxing Crescent, 34% of the Moon is Illuminated
Jul 3
Waxing Crescent
Jul 5
First Quarter
Jul 12
Full
Jul 18
Last Quarter
Jul 26
New

Hourly Weather History & Observations

Time (PDT) Temp. Heat Index Dew Point Humidity Pressure Visibility Wind Dir Wind Speed Gust Speed Precip Events Conditions
12:37 AM 63.0 °F - 62.1 °F 97% 29.88 in 8.0 mi Calm Calm - N/A   Mostly Cloudy
12:47 AM 63.0 °F - 61.0 °F 93% 29.88 in 8.0 mi Calm Calm - N/A   Mostly Cloudy
1:47 AM 63.0 °F - 61.0 °F 93% 29.88 in 6.0 mi Calm Calm - N/A   Overcast
2:47 AM 63.0 °F - 62.1 °F 97% 29.89 in 4.0 mi Calm Calm - N/A   Overcast
3:14 AM 63.0 °F - 61.0 °F 93% 29.90 in 5.0 mi Calm Calm - N/A   Overcast
3:47 AM 63.0 °F - 61.0 °F 93% 29.91 in 5.0 mi Calm Calm - N/A   Overcast
4:47 AM 63.0 °F - 61.0 °F 93% 29.90 in 5.0 mi Calm Calm - N/A   Overcast
5:47 AM 64.0 °F - 61.0 °F 90% 29.90 in 5.0 mi East 3.5 mph - N/A   Overcast
6:47 AM 64.9 °F - 61.0 °F 87% 29.92 in 3.0 mi Calm Calm - N/A   Overcast
7:47 AM 66.9 °F - 62.1 °F 84% 29.93 in 3.0 mi Calm Calm - N/A   Haze
8:22 AM 68.0 °F - 62.1 °F 81% 29.93 in 3.0 mi Calm Calm - N/A   Haze
8:47 AM 69.1 °F - 62.1 °F 78% 29.93 in 3.0 mi Calm Calm - N/A   Haze
9:47 AM 72.0 °F - 63.0 °F 73% 29.93 in 4.0 mi Calm Calm - N/A   Haze
10:47 AM 75.9 °F - 63.0 °F 64% 29.91 in 4.0 mi Variable 3.5 mph - N/A   Haze
11:47 AM 80.1 °F 81.7 °F 64.0 °F 58% 29.89 in 5.0 mi Calm Calm - N/A   Haze
12:47 PM 80.1 °F 81.7 °F 64.0 °F 58% 29.89 in 5.0 mi Variable 4.6 mph - N/A   Haze
1:47 PM 79.0 °F - 64.0 °F 60% 29.88 in 6.0 mi Variable 5.8 mph - N/A   Haze
2:47 PM 78.1 °F - 64.0 °F 62% 29.86 in 8.0 mi Variable 4.6 mph - N/A   Clear
3:47 PM 75.9 °F - 63.0 °F 64% 29.85 in 10.0 mi West 8.1 mph - N/A   Clear
4:47 PM 73.0 °F - 63.0 °F 71% 29.85 in 10.0 mi Variable 5.8 mph - N/A   Clear
5:47 PM 72.0 °F - 62.1 °F 71% 29.83 in 10.0 mi Variable 5.8 mph - N/A   Clear
6:47 PM 72.0 °F - 63.0 °F 73% 29.82 in 10.0 mi SW 3.5 mph - N/A   Clear
7:47 PM 69.1 °F - 63.0 °F 81% 29.83 in 10.0 mi Calm Calm - N/A   Clear
8:47 PM 66.0 °F - 63.0 °F 90% 29.86 in 9.0 mi Variable 3.5 mph - N/A   Clear
9:47 PM 64.9 °F - 63.0 °F 93% 29.88 in 8.0 mi Calm Calm - N/A   Clear
10:47 PM 64.9 °F - 63.0 °F 93% 29.90 in 8.0 mi Calm Calm - N/A   Clear
11:47 PM 64.0 °F - 63.0 °F 96% 29.91 in 8.0 mi Calm Calm - N/A   Clear